Regional Weather Roundup
Issued by NWS

Home | Current Version | Previous Version | Text Only | Print | Product List | Glossary On
Versions: 1 2 3 4 5 6 7 8 9 10 11 12 13 14 15 16 17 18 19 20 21 22 23 24 25 26 27 28 29 30 31 32 33 34 35 36 37 38 39 40 41 42 43 44 45 46 47 48 49 50
000
ASUS46 KPQR 262310
RWROR

OREGON REGIONAL WEATHER ROUNDUP
NATIONAL WEATHER SERVICE PORTLAND OR
400 PM PDT WED APR 26 2017

NOTE: "FAIR" INDICATES FEW OR NO CLOUDS BELOW 12,000 FEET WITH
NO SIGNIFICANT WEATHER AND/OR OBSTRUCTIONS TO VISIBILITY.

ORZ001>013-270000-
NORTHWEST OREGON


CITY           SKY/WX    TMP DP  RH WIND       PRES   REMARKS
ASTORIA        PTSUNNY   53  43  68 W15       29.97F
NEWPORT        CLOUDY    50  46  87 W10       30.07S
PORTLAND       PTSUNNY   57  44  62 W9        29.94R
VANCOUVER WA   PTSUNNY   58  47  66 NE6       29.93S
SCAPPOOSE      PTSUNNY   55  43  63 W12       29.94S
HILLSBORO      PTSUNNY   58  40  51 NW16      29.93S
AURORA         PTSUNNY   57  46  66 SW7       29.96F
MCMINNVILLE    LGT RAIN  54  44  69 W10       29.98R
SALEM          LGT RAIN  53  46  77 W8        29.98R
CORVALLIS      PTSUNNY   55  45  67 W6        30.02R
EUGENE         PTSUNNY   56  45  66 W9        30.03R
$$

ORZ021-028-270000-
SOUTHWEST OREGON


CITY           SKY/WX    TMP DP  RH WIND       PRES   REMARKS
NORTH BEND     CLOUDY    52  48  87 W5        30.11R
BROOKINGS      CLOUDY    52  47  83 NW15      30.09R
ROSEBURG       CLOUDY    55  44  66 N9        30.05R
SEXTON SUMMIT  FOG       45  44  97 VRB5      29.98S VSB 1/4
MEDFORD        PTSUNNY   58  49  72 W12       29.97R
$$

ORZ014>016-041-270000-
COLUMBIA GORGE


CITY           SKY/WX    TMP DP  RH WIND       PRES   REMARKS
TROUTDALE      LGT RAIN  53  47  79 VRB3      29.94R
HOOD RIVER     LGT RAIN  50  43  76 W12G21    29.90R
THE DALLES     CLOUDY    56  42  59 NW17      29.87R
$$

ORZ029>031-041-044-049-050-061>064-502-503-505>511-270000-
EASTERN OREGON


CITY           SKY/WX    TMP DP  RH WIND       PRES   REMARKS
REDMOND        MOSUNNY   52  28  39 W15G26    29.87S
BEND           SUNNY     50  30  46 N13G25    29.87S
PRINEVILLE     PTSUNNY   50  36  57 W16G22    29.85F
KLAMATH FALLS  CLOUDY    48  42  80 W20G32    29.91R
LAKEVIEW       CLOUDY    50  39  66 NW20G26   29.87S
HERMISTON      LGT RAIN  53  45  74 W12G28    29.79S
PENDLETON      CLOUDY    54  42  64 W23G31    29.78F
JOHN DAY       LGT RAIN  42  40  91 W17       29.83R
MEACHAM        LGT RAIN  41  36  82 VRB5      29.77S
LA GRANDE      CLOUDY    45  39  81 W13G18    29.79R
BAKER CITY     LGT RAIN  44  40  85 NW12      29.77R
BURNS          PTSUNNY   49  38  65 NW24G35   29.79R
ROME             N/A     49  43  80 NW18      29.75R
ONTARIO        PTSUNNY   55  45  68 SE5       29.73F
$$



USA.gov is the U.S. government's official web portal to all federal, state and local government web resources and services.